| time (UTC) | temp F | wind direction | speed MPH | gust MPH | rain 1hr in | rain 24hr in | rain mn in | humidity % | barometer mb |
| 20260509220541 | 45 | 69 | 2.0 | 9.0 | 0.06 | 0.28 | 0.28 | 92 | 1013.4 |
| 20260509220042 | 45 | 85 | 2.0 | 7.0 | 0.05 | 0.28 | 0.28 | 92 | 1013.4 |
| 20260509215541 | 45 | 107 | 3.0 | 12.0 | 0.04 | 0.27 | 0.27 | 92 | 1013.6 |
| 20260509215041 | 45 | 65 | 3.0 | 12.0 | 0.04 | 0.27 | 0.27 | 92 | 1013.5 |
| 20260509214540 | 45 | 76 | 2.0 | 8.0 | 0.03 | 0.26 | 0.26 | 92 | 1013.6 |
| 20260509214040 | 45 | 57 | 1.0 | 7.0 | 0.02 | 0.25 | 0.25 | 92 | 1013.6 |
| 20260509213540 | 45 | 35 | 1.0 | 7.0 | 0.01 | 0.24 | 0.24 | 92 | 1013.5 |
| 20260509213041 | 45 | 112 | 2.0 | 6.0 | 0.01 | 0.24 | 0.24 | 92 | 1013.5 |
| 20260509212539 | 45 | 93 | 1.0 | 4.0 | 0.02 | 0.24 | 0.24 | 92 | 1013.6 |
| 20260509212039 | 45 | 72 | 1.0 | 6.0 | 0.02 | 0.24 | 0.24 | 91 | 1013.7 |
| 20260509211541 | 45 | 86 | 1.0 | 6.0 | 0.01 | 0.23 | 0.23 | 91 | 1013.8 |
| 20260509211039 | 45 | 49 | 2.0 | 4.0 | 0.02 | 0.23 | 0.23 | 91 | 1013.8 |
| 20260509210539 | 45 | 84 | 1.0 | 7.0 | 0.02 | 0.23 | 0.23 | 91 | 1013.8 |
| 20260509210045 | 45 | 76 | 2.0 | 6.0 | 0.02 | 0.23 | 0.23 | 91 | 1013.6 |
| 20260509205538 | 45 | 36 | 3.0 | 6.0 | 0.03 | 0.23 | 0.23 | 91 | 1013.2 |
| 20260509205038 | 45 | 106 | 1.0 | 6.0 | 0.03 | 0.23 | 0.23 | 91 | 1013.6 |
| 20260509204548 | 46 | 59 | 1.0 | 4.0 | 0.04 | 0.23 | 0.23 | 91 | 1013.6 |
| 20260509204038 | 45 | 57 | 1.0 | 4.0 | 0.05 | 0.23 | 0.23 | 91 | 1013.3 |
| 20260509203539 | 45 | 44 | 1.0 | 8.0 | 0.05 | 0.23 | 0.23 | 91 | 1013.2 |
| 20260509203038 | 45 | 39 | 2.0 | 5.0 | 0.06 | 0.23 | 0.23 | 91 | 1013.2 |
| 20260509202539 | 45 | 9 | 2.0 | 7.0 | 0.05 | 0.22 | 0.22 | 90 | 1013.6 |
| 20260509202038 | 45 | 85 | 2.0 | 6.0 | 0.06 | 0.22 | 0.22 | 90 | 1014.0 |
| 20260509201637 | 45 | 98 | 1.0 | 4.0 | 0.07 | 0.22 | 0.22 | 90 | 1014.4 |
| 20260509201036 | 45 | 138 | 0.0 | 4.0 | 0.07 | 0.21 | 0.21 | 90 | 1014.5 |
| 20260509200537 | 45 | 141 | 1.0 | 5.0 | 0.07 | 0.21 | 0.21 | 90 | 1014.4 |
| 20260509200043 | 45 | 121 | 1.0 | 5.0 | 0.08 | 0.21 | 0.21 | 90 | 1014.4 |
| 20260509195535 | 45 | 173 | 0.0 | 4.0 | 0.08 | 0.20 | 0.20 | 89 | 1014.5 |
| 20260509195036 | 45 | 124 | 1.0 | 5.0 | 0.09 | 0.20 | 0.20 | 89 | 1014.5 |
| 20260509194538 | 45 | 157 | 2.0 | 5.0 | 0.08 | 0.19 | 0.19 | 89 | 1014.5 |
| 20260509194035 | 46 | 123 | 2.0 | 6.0 | 0.08 | 0.18 | 0.18 | 89 | 1014.5 |
| 20260509193534 | 46 | 164 | 2.0 | 7.0 | 0.09 | 0.18 | 0.18 | 89 | 1014.4 |
| 20260509193034 | 46 | 159 | 1.0 | 3.0 | 0.09 | 0.17 | 0.17 | 89 | 1014.5 |
| 20260509192534 | 46 | 157 | 0.0 | 2.0 | 0.10 | 0.17 | 0.17 | 89 | 1014.4 |
| 20260509192036 | 46 | 140 | 0.0 | 2.0 | 0.10 | 0.16 | 0.16 | 89 | 1014.4 |
| 20260509191535 | 46 | 140 | 0.0 | 7.0 | 0.10 | 0.15 | 0.15 | 88 | 1014.4 |
| 20260509191035 | 46 | 142 | 2.0 | 7.0 | 0.09 | 0.14 | 0.14 | 88 | 1014.6 |
| 20260509190533 | 46 | 157 | 1.0 | 6.0 | 0.10 | 0.14 | 0.14 | 88 | 1014.7 |
| 20260509190035 | 46 | 186 | 3.0 | 6.0 | 0.10 | 0.13 | 0.13 | 88 | 1014.9 |
| 20260509185535 | 46 | 135 | 1.0 | 8.0 | 0.10 | 0.12 | 0.12 | 87 | 1014.8 |
| 20260509185033 | 46 | 163 | 1.0 | 8.0 | 0.09 | 0.11 | 0.11 | 87 | 1014.8 |
| 20260509184546 | 46 | 188 | 1.0 | 5.0 | 0.09 | 0.10 | 0.10 | 87 | 1014.9 |
| 20260509184034 | 46 | 170 | 2.0 | 10.0 | 0.10 | 0.10 | 0.10 | 86 | 1014.9 |
| 20260509183532 | 47 | 122 | 4.0 | 10.0 | 0.09 | 0.09 | 0.09 | 86 | 1014.8 |
| 20260509183033 | 47 | 182 | 2.0 | 9.0 | 0.08 | 0.08 | 0.08 | 85 | 1014.9 |
| 20260509182531 | 47 | 118 | 1.0 | 6.0 | 0.07 | 0.07 | 0.07 | 85 | 1014.9 |
| 20260509182031 | 47 | 190 | 2.0 | 5.0 | 0.06 | 0.06 | 0.06 | 84 | 1014.9 |
| 20260509181531 | 47 | 200 | 0.0 | 4.0 | 0.05 | 0.05 | 0.05 | 83 | 1015.0 |
| 20260509181031 | 47 | 201 | 1.0 | 7.0 | 0.05 | 0.05 | 0.05 | 82 | 1014.8 |
| 20260509180533 | 48 | 169 | 3.0 | 7.0 | 0.04 | 0.04 | 0.04 | 82 | 1014.9 |
| 20260509180030 | 48 | 159 | 1.0 | 5.0 | 0.03 | 0.03 | 0.03 | 81 | 1014.8 |
| 20260509175531 | 48 | 150 | 2.0 | 5.0 | 0.02 | 0.02 | 0.02 | 79 | 1014.9 |
| 20260509175030 | 48 | 148 | 2.0 | 7.0 | 0.01 | 0.01 | 0.01 | 77 | 1014.9 |
| 20260509174535 | 49 | 163 | 2.0 | 7.0 | 0.01 | 0.01 | 0.01 | 75 | 1014.8 |
| 20260509174030 | 49 | 169 | 3.0 | 6.0 | 0.00 | 0.00 | 0.00 | 73 | 1014.7 |
| 20260509173529 | 50 | 188 | 2.0 | 5.0 | 0.00 | 0.00 | 0.00 | 72 | 1014.7 |
| 20260509173029 | 50 | 162 | 1.0 | 4.0 | 0.00 | 0.00 | 0.00 | 71 | 1014.7 |
| 20260509172529 | 51 | 183 | 2.0 | 8.0 | 0.00 | 0.00 | 0.00 | 68 | 1014.7 |
| 20260509172030 | 51 | 157 | 3.0 | 8.0 | 0.00 | 0.00 | 0.00 | 67 | 1014.7 |
| 20260509171533 | 51 | 209 | 4.0 | 8.0 | 0.00 | 0.00 | 0.00 | 65 | 1014.7 |
| 20260509171029 | 51 | 263 | 2.0 | 8.0 | 0.00 | 0.00 | 0.00 | 65 | 1014.7 |
| 20260509170528 | 51 | 160 | 4.0 | 8.0 | 0.00 | 0.00 | 0.00 | 64 | 1014.7 |
| 20260509170028 | 52 | 188 | 3.0 | 8.0 | 0.00 | 0.00 | 0.00 | 65 | 1014.8 |
| 20260509165532 | 52 | 196 | 3.0 | 8.0 | 0.00 | 0.00 | 0.00 | 65 | 1014.8 |
| 20260509165028 | 52 | 198 | 2.0 | 8.0 | 0.00 | 0.00 | 0.00 | 65 | 1014.7 |
| 20260509164528 | 52 | 159 | 2.0 | 10.0 | 0.00 | 0.00 | 0.00 | 61 | 1014.8 |
| 20260509164028 | 52 | 213 | 3.0 | 10.0 | 0.00 | 0.00 | 0.00 | 61 | 1014.8 |
| 20260509163531 | 52 | 158 | 5.0 | 9.0 | 0.00 | 0.00 | 0.00 | 61 | 1014.9 |
| 20260509163027 | 52 | 193 | 3.0 | 8.0 | 0.00 | 0.00 | 0.00 | 62 | 1014.8 |
| 20260509162529 | 52 | 188 | 4.0 | 9.0 | 0.00 | 0.00 | 0.00 | 61 | 1014.8 |
| 20260509162027 | 52 | 155 | 2.0 | 9.0 | 0.00 | 0.00 | 0.00 | 59 | 1014.8 |
| 20260509161529 | 51 | 231 | 2.0 | 8.0 | 0.00 | 0.00 | 0.00 | 59 | 1014.8 |
| 20260509161026 | 51 | 163 | 4.0 | 9.0 | 0.00 | 0.00 | 0.00 | 62 | 1014.7 |
| 20260509160526 | 51 | 226 | 3.0 | 9.0 | 0.00 | 0.00 | 0.00 | 64 | 1014.8 |
| 20260509160033 | 51 | 197 | 3.0 | 9.0 | 0.00 | 0.00 | 0.00 | 67 | 1014.8 |
| 20260509155525 | 51 | 175 | 2.0 | 6.0 | 0.00 | 0.00 | 0.00 | 66 | 1014.7 |
| 20260509155025 | 51 | 128 | 1.0 | 9.0 | 0.00 | 0.00 | 0.00 | 66 | 1014.8 |
| 20260509154526 | 51 | 150 | 5.0 | 9.0 | 0.00 | 0.00 | 0.00 | 68 | 1014.8 |
| 20260509154025 | 51 | 158 | 3.0 | 8.0 | 0.00 | 0.00 | 0.00 | 69 | 1014.8 |
| 20260509153525 | 51 | 153 | 2.0 | 7.0 | 0.00 | 0.00 | 0.00 | 67 | 1014.8 |
| 20260509153038 | 52 | 132 | 3.0 | 7.0 | 0.00 | 0.00 | 0.00 | 65 | 1014.8 |
| 20260509152525 | 52 | 124 | 2.0 | 6.0 | 0.00 | 0.00 | 0.00 | 64 | 1014.7 |
| 20260509152036 | 52 | 167 | 3.0 | 6.0 | 0.00 | 0.00 | 0.00 | 61 | 1014.6 |
| 20260509151524 | 53 | 116 | 2.0 | 6.0 | 0.00 | 0.00 | 0.00 | 60 | 1014.3 |
| 20260509151024 | 53 | 132 | 2.0 | 6.0 | 0.00 | 0.00 | 0.00 | 56 | 1014.3 |
| 20260509150523 | 53 | 123 | 3.0 | 9.0 | 0.00 | 0.00 | 0.00 | 56 | 1014.3 |
| 20260509150030 | 54 | 137 | 4.0 | 9.0 | 0.00 | 0.00 | 0.00 | 54 | 1014.2 |
| 20260509145523 | 54 | 120 | 2.0 | 6.0 | 0.00 | 0.00 | 0.00 | 58 | 1014.1 |
| 20260509145023 | 55 | 192 | 1.0 | 9.0 | 0.00 | 0.00 | 0.00 | 64 | 1014.3 |
| 20260509144528 | 55 | 171 | 2.0 | 8.0 | 0.00 | 0.00 | 0.00 | 66 | 1014.2 |
| 20260509144022 | 54 | 65 | 2.0 | 6.0 | 0.00 | 0.00 | 0.00 | 65 | 1014.1 |
| 20260509143523 | 54 | 123 | 1.0 | 6.0 | 0.00 | 0.00 | 0.00 | 65 | 1014.1 |
| 20260509143022 | 54 | 67 | 2.0 | 7.0 | 0.00 | 0.00 | 0.00 | 63 | 1014.1 |
| 20260509142521 | 54 | 100 | 3.0 | 7.0 | 0.00 | 0.00 | 0.00 | 65 | 1014.2 |
| 20260509142023 | 54 | 141 | 2.0 | 5.0 | 0.00 | 0.00 | 0.00 | 64 | 1014.1 |
| 20260509141528 | 55 | 146 | 2.0 | 7.0 | 0.00 | 0.00 | 0.00 | 65 | 1014.1 |
| 20260509141023 | 55 | 153 | 2.0 | 6.0 | 0.00 | 0.00 | 0.00 | 65 | 1014.3 |
| 20260509140520 | 55 | 159 | 2.0 | 6.0 | 0.00 | 0.00 | 0.00 | 64 | 1014.1 |
| 20260509140021 | 55 | 141 | 1.0 | 6.0 | 0.00 | 0.00 | 0.00 | 64 | 1014.0 |
| 20260509135521 | 55 | 126 | 3.0 | 7.0 | 0.00 | 0.00 | 0.00 | 65 | 1014.1 |
| 20260509135020 | 55 | 101 | 1.0 | 8.0 | 0.00 | 0.00 | 0.00 | 66 | 1014.2 |
| 20260509134538 | 55 | 111 | 3.0 | 8.0 | 0.00 | 0.00 | 0.00 | 62 | 1014.3 |
| 20260509134019 | 55 | 182 | 2.0 | 8.0 | 0.00 | 0.00 | 0.00 | 60 | 1014.3 |
| 20260509133522 | 55 | 108 | 3.0 | 8.0 | 0.00 | 0.00 | 0.00 | 59 | 1014.2 |
| 20260509133021 | 55 | 159 | 2.0 | 7.0 | 0.00 | 0.00 | 0.00 | 57 | 1014.2 |
| 20260509132518 | 55 | 177 | 2.0 | 7.0 | 0.00 | 0.00 | 0.00 | 55 | 1014.2 |
| 20260509132017 | 55 | 132 | 2.0 | 7.0 | 0.00 | 0.00 | 0.00 | 53 | 1014.3 |
| 20260509131516 | 55 | 173 | 3.0 | 8.0 | 0.00 | 0.00 | 0.00 | 55 | 1014.3 |
| 20260509131015 | 55 | 134 | 3.0 | 5.0 | 0.00 | 0.00 | 0.00 | 57 | 1014.2 |
| 20260509130517 | 54 | 87 | 1.0 | 5.0 | 0.00 | 0.00 | 0.00 | 63 | 1014.3 |
| 20260509130012 | 54 | 132 | 2.0 | 5.0 | 0.00 | 0.00 | 0.00 | 60 | 1014.4 |
| 20260509125511 | 54 | 159 | 2.0 | 7.0 | 0.00 | 0.00 | 0.00 | 60 | 1014.4 |
| 20260509125010 | 53 | 173 | 4.0 | 7.0 | 0.00 | 0.00 | 0.00 | 58 | 1014.4 |
| 20260509124508 | 53 | 161 | 3.0 | 6.0 | 0.00 | 0.00 | 0.00 | 60 | 1014.4 |
| 20260509124007 | 53 | 115 | 1.0 | 5.0 | 0.00 | 0.00 | 0.00 | 65 | 1014.3 |
| 20260509123506 | 53 | 126 | 1.0 | 5.0 | 0.00 | 0.00 | 0.00 | 64 | 1014.4 |
| 20260509123004 | 53 | 175 | 2.0 | 5.0 | 0.00 | 0.00 | 0.00 | 67 | 1014.4 |
| 20260509122504 | 52 | 113 | 1.0 | 4.0 | 0.00 | 0.00 | 0.00 | 67 | 1014.4 |
| 20260509122003 | 52 | 151 | 1.0 | 7.0 | 0.00 | 0.00 | 0.00 | 71 | 1014.3 |
| 20260509121616 | 52 | 146 | 2.0 | 7.0 | 0.00 | 0.00 | 0.00 | 73 | 1014.3 |
| 20260509121059 | 51 | 219 | 1.0 | 4.0 | 0.00 | 0.00 | 0.00 | 72 | 1014.3 |
| 20260509120559 | 51 | 229 | 1.0 | 4.0 | 0.00 | 0.00 | 0.00 | 74 | 1014.5 |
| 20260509120114 | 51 | 152 | 2.0 | 6.0 | 0.00 | 0.00 | 0.00 | 76 | 1014.5 |
| 20260509115555 | 50 | 111 | 1.0 | 8.0 | 0.00 | 0.00 | 0.00 | 78 | 1014.3 |
| 20260509115054 | 49 | 130 | 2.0 | 7.0 | 0.00 | 0.00 | 0.00 | 80 | 1014.5 |
| 20260509114600 | 48 | 98 | 1.0 | 4.0 | 0.00 | 0.00 | 0.00 | 81 | 1014.3 |
| 20260509114051 | 47 | 129 | 1.0 | 3.0 | 0.00 | 0.00 | 0.00 | 86 | 1014.4 |
| 20260509113553 | 46 | 313 | 0.0 | 2.0 | 0.00 | 0.00 | 0.00 | 87 | 1014.4 |
| 20260509113049 | 45 | 311 | 0.0 | 3.0 | 0.00 | 0.00 | 0.00 | 89 | 1014.4 |
| 20260509112546 | 44 | 307 | 1.0 | 3.0 | 0.00 | 0.00 | 0.00 | 89 | 1014.4 |
| 20260509112045 | 44 | 308 | 1.0 | 3.0 | 0.00 | 0.00 | 0.00 | 90 | 1014.3 |
| 20260509111558 | 43 | 306 | 0.0 | 0.0 | 0.00 | 0.00 | 0.00 | 90 | 1014.3 |
| 20260509111043 | 42 | 306 | 0.0 | 0.0 | 0.00 | 0.00 | 0.00 | 89 | 1014.3 |
| 20260509110540 | 41 | 306 | 0.0 | 0.0 | 0.00 | 0.00 | 0.00 | 89 | 1014.3 |
| 20260509110039 | 41 | 306 | 0.0 | 0.0 | 0.00 | 0.00 | 0.00 | 88 | 1014.2 |
| 20260509105537 | 40 | 306 | 0.0 | 0.0 | 0.00 | 0.00 | 0.00 | 88 | 1014.1 |
| 20260509105036 | 40 | 306 | 0.0 | 0.0 | 0.00 | 0.00 | 0.00 | 87 | 1014.1 |
| 20260509104543 | 39 | 306 | 0.0 | 0.0 | 0.00 | 0.00 | 0.00 | 87 | 1014.2 |
| 20260509104034 | 39 | 306 | 0.0 | 0.0 | 0.00 | 0.00 | 0.00 | 86 | 1014.0 |
| 20260509103534 | 39 | 306 | 0.0 | 0.0 | 0.00 | 0.00 | 0.00 | 86 | 1013.9 |
| 20260509103035 | 39 | 306 | 0.0 | 0.0 | 0.00 | 0.00 | 0.00 | 85 | 1014.0 |
| 20260509102534 | 39 | 306 | 0.0 | 0.0 | 0.00 | 0.00 | 0.00 | 85 | 1013.9 |
| 20260509102033 | 39 | 306 | 0.0 | 0.0 | 0.00 | 0.00 | 0.00 | 84 | 1013.8 |
| 20260509101546 | 39 | 306 | 0.0 | 0.0 | 0.00 | 0.00 | 0.00 | 84 | 1013.9 |
| 20260509101034 | 39 | 306 | 0.0 | 0.0 | 0.00 | 0.00 | 0.00 | 83 | 1013.7 |
| 20260509100533 | 39 | 306 | 0.0 | 0.0 | 0.00 | 0.00 | 0.00 | 83 | 1013.7 |
| 20260509100029 | 39 | 306 | 0.0 | 0.0 | 0.00 | 0.00 | 0.00 | 82 | 1013.5 |
| 20260509095528 | 39 | 306 | 0.0 | 0.0 | 0.00 | 0.00 | 0.00 | 81 | 1013.4 |
| 20260509095027 | 39 | 306 | 0.0 | 0.0 | 0.00 | 0.00 | 0.00 | 81 | 1013.2 |
| 20260509094535 | 39 | 306 | 0.0 | 0.0 | 0.00 | 0.00 | 0.00 | 80 | 1013.2 |
| 20260509094025 | 39 | 306 | 0.0 | 0.0 | 0.00 | 0.00 | 0.00 | 80 | 1013.2 |
| 20260509093524 | 39 | 306 | 0.0 | 0.0 | 0.00 | 0.00 | 0.00 | 79 | 1013.2 |
| 20260509093023 | 40 | 306 | 0.0 | 0.0 | 0.00 | 0.00 | 0.00 | 79 | 1012.9 |
| 20260509092522 | 40 | 306 | 0.0 | 0.0 | 0.00 | 0.00 | 0.00 | 79 | 1013.0 |
| 20260509092022 | 40 | 306 | 0.0 | 0.0 | 0.00 | 0.00 | 0.00 | 79 | 1013.0 |
| 20260509091534 | 40 | 306 | 0.0 | 0.0 | 0.00 | 0.00 | 0.00 | 78 | 1013.1 |
| 20260509091021 | 40 | 306 | 0.0 | 0.0 | 0.00 | 0.00 | 0.00 | 77 | 1013.0 |
| 20260509090520 | 40 | 306 | 0.0 | 0.0 | 0.00 | 0.00 | 0.00 | 77 | 1012.9 |
| 20260509090022 | 40 | 306 | 0.0 | 0.0 | 0.00 | 0.00 | 0.00 | 76 | 1012.8 |
| 20260509085518 | 41 | 306 | 0.0 | 0.0 | 0.00 | 0.00 | 0.00 | 76 | 1012.9 |
| 20260509085018 | 41 | 306 | 0.0 | 0.0 | 0.00 | 0.00 | 0.00 | 74 | 1012.9 |
| 20260509084521 | 41 | 306 | 0.0 | 0.0 | 0.00 | 0.00 | 0.00 | 74 | 1012.9 |
| 20260509084019 | 41 | 306 | 0.0 | 0.0 | 0.00 | 0.00 | 0.00 | 73 | 1012.9 |
| 20260509083516 | 41 | 306 | 0.0 | 0.0 | 0.00 | 0.00 | 0.00 | 73 | 1013.0 |
| 20260509083115 | 41 | 306 | 0.0 | 0.0 | 0.00 | 0.00 | 0.00 | 73 | 1013.0 |
| 20260509082515 | 42 | 306 | 0.0 | 0.0 | 0.00 | 0.00 | 0.00 | 73 | 1013.0 |
| 20260509082015 | 42 | 306 | 0.0 | 0.0 | 0.00 | 0.00 | 0.00 | 72 | 1013.0 |
| 20260509081523 | 42 | 306 | 0.0 | 0.0 | 0.00 | 0.00 | 0.00 | 72 | 1013.1 |
| 20260509081014 | 42 | 306 | 0.0 | 0.0 | 0.00 | 0.00 | 0.00 | 72 | 1013.1 |
| 20260509080512 | 42 | 306 | 0.0 | 0.0 | 0.00 | 0.00 | 0.00 | 72 | 1013.1 |
| 20260509080014 | 42 | 306 | 0.0 | 0.0 | 0.00 | 0.00 | 0.00 | 71 | 1013.1 |
| 20260509075512 | 42 | 306 | 0.0 | 0.0 | 0.00 | 0.00 | 0.00 | 71 | 1013.2 |
| 20260509075012 | 42 | 306 | 0.0 | 0.0 | 0.00 | 0.00 | 0.00 | 70 | 1013.1 |
| 20260509074512 | 42 | 306 | 0.0 | 0.0 | 0.00 | 0.00 | 0.00 | 69 | 1013.1 |
| 20260509074011 | 42 | 306 | 0.0 | 0.0 | 0.00 | 0.00 | 0.00 | 68 | 1013.0 |
| 20260509073511 | 42 | 306 | 0.0 | 0.0 | 0.00 | 0.00 | 0.00 | 67 | 1013.0 |
| 20260509073012 | 42 | 306 | 0.0 | 0.0 | 0.00 | 0.00 | 0.00 | 67 | 1013.0 |
| 20260509072510 | 42 | 306 | 0.0 | 0.0 | 0.00 | 0.00 | 0.00 | 66 | 1013.0 |
| 20260509072010 | 42 | 306 | 0.0 | 0.0 | 0.00 | 0.00 | 0.00 | 66 | 1013.0 |
| 20260509071509 | 42 | 306 | 0.0 | 0.0 | 0.00 | 0.00 | 0.00 | 65 | 1012.9 |
| 20260509071009 | 42 | 306 | 0.0 | 0.0 | 0.00 | 0.00 | 0.00 | 65 | 1012.9 |
| 20260509070508 | 42 | 306 | 0.0 | 0.0 | 0.00 | 0.00 | 0.00 | 65 | 1012.9 |
| 20260509070011 | 42 | 306 | 0.0 | 0.0 | 0.00 | 0.00 | 0.00 | 65 | 1012.8 |
| 20260509065507 | 42 | 306 | 0.0 | 1.0 | 0.00 | 0.00 | 0.00 | 66 | 1012.8 |
| 20260509065009 | 42 | 306 | 0.0 | 2.0 | 0.00 | 0.00 | 0.00 | 66 | 1012.9 |
| 20260509064507 | 43 | 306 | 0.0 | 2.0 | 0.00 | 0.00 | 0.00 | 67 | 1012.8 |
| 20260509064008 | 43 | 306 | 0.0 | 3.0 | 0.00 | 0.00 | 0.00 | 67 | 1012.7 |
| 20260509063504 | 43 | 306 | 1.0 | 3.0 | 0.00 | 0.00 | 0.00 | 67 | 1012.6 |
| 20260509063003 | 43 | 306 | 0.0 | 2.0 | 0.00 | 0.00 | 0.00 | 67 | 1012.6 |
| 20260509062503 | 43 | 306 | 0.0 | 0.0 | 0.00 | 0.00 | 0.00 | 67 | 1012.6 |
| 20260509062002 | 43 | 306 | 0.0 | 0.0 | 0.00 | 0.00 | 0.00 | 67 | 1012.5 |
| 20260509061501 | 43 | 306 | 0.0 | 0.0 | 0.00 | 0.00 | 0.00 | 67 | 1012.5 |
| 20260509061003 | 44 | 306 | 0.0 | 0.0 | 0.00 | 0.00 | 0.00 | 68 | 1012.4 |
| 20260509060600 | 44 | 306 | 0.0 | 1.0 | 0.00 | 0.00 | 0.00 | 68 | 1012.4 |
| 20260509060100 | 44 | 306 | 0.0 | 2.0 | 0.00 | 0.00 | 0.00 | 69 | 1012.4 |
| 20260509055600 | 44 | 306 | 1.0 | 2.0 | 0.00 | 0.00 | 0.00 | 69 | 1012.3 |
| 20260509055058 | 44 | 306 | 1.0 | 2.0 | 0.00 | 0.00 | 0.00 | 68 | 1012.3 |
| 20260509054603 | 44 | 306 | 0.0 | 0.0 | 0.00 | 0.00 | 0.00 | 67 | 1012.4 |
| 20260509054058 | 44 | 306 | 0.0 | 0.0 | 0.00 | 0.00 | 0.00 | 67 | 1012.3 |
| 20260509053558 | 44 | 306 | 0.0 | 0.0 | 0.00 | 0.00 | 0.00 | 67 | 1012.3 |
| 20260509053107 | 44 | 306 | 0.0 | 0.0 | 0.00 | 0.00 | 0.00 | 68 | 1012.3 |
| 20260509052558 | 44 | 306 | 0.0 | 0.0 | 0.00 | 0.00 | 0.00 | 67 | 1012.3 |
| 20260509052057 | 44 | 306 | 0.0 | 0.0 | 0.00 | 0.00 | 0.00 | 66 | 1012.3 |
| 20260509051559 | 44 | 306 | 0.0 | 0.0 | 0.00 | 0.00 | 0.00 | 66 | 1012.4 |
| 20260509051057 | 44 | 306 | 0.0 | 0.0 | 0.00 | 0.00 | 0.00 | 65 | 1012.4 |
| 20260509050558 | 44 | 306 | 0.0 | 0.0 | 0.00 | 0.00 | 0.00 | 65 | 1012.3 |
| 20260509050058 | 44 | 306 | 0.0 | 0.0 | 0.00 | 0.00 | 0.00 | 65 | 1012.3 |
| 20260509045557 | 44 | 306 | 0.0 | 0.0 | 0.00 | 0.00 | 0.00 | 66 | 1012.4 |
| 20260509045058 | 44 | 306 | 0.0 | 0.0 | 0.00 | 0.00 | 0.00 | 66 | 1012.4 |
| 20260509044556 | 44 | 306 | 0.0 | 0.0 | 0.00 | 0.00 | 0.00 | 65 | 1012.4 |
| 20260509044056 | 44 | 306 | 0.0 | 0.0 | 0.00 | 0.00 | 0.00 | 65 | 1012.4 |
| 20260509043556 | 44 | 306 | 0.0 | 0.0 | 0.00 | 0.00 | 0.00 | 65 | 1012.4 |
| 20260509043056 | 44 | 306 | 0.0 | 0.0 | 0.00 | 0.00 | 0.00 | 65 | 1012.4 |
| 20260509042554 | 44 | 306 | 0.0 | 0.0 | 0.00 | 0.00 | 0.00 | 65 | 1012.3 |
| 20260509042056 | 44 | 306 | 0.0 | 0.0 | 0.00 | 0.00 | 0.00 | 63 | 1012.3 |
| 20260509041616 | 44 | 306 | 0.0 | 0.0 | 0.00 | 0.00 | 0.00 | 64 | 1012.3 |
| 20260509041052 | 44 | 306 | 0.0 | 0.0 | 0.00 | 0.00 | 0.00 | 66 | 1012.1 |
| 20260509040551 | 44 | 306 | 0.0 | 0.0 | 0.00 | 0.00 | 0.00 | 66 | 1012.1 |
| 20260509040049 | 44 | 306 | 0.0 | 0.0 | 0.00 | 0.00 | 0.00 | 67 | 1012.0 |
| 20260509035548 | 44 | 306 | 0.0 | 0.0 | 0.00 | 0.00 | 0.00 | 66 | 1012.0 |
| 20260509035048 | 44 | 306 | 0.0 | 0.0 | 0.00 | 0.00 | 0.00 | 66 | 1012.0 |
| 20260509034548 | 44 | 306 | 0.0 | 0.0 | 0.00 | 0.00 | 0.00 | 65 | 1011.9 |
| 20260509034050 | 44 | 306 | 0.0 | 0.0 | 0.00 | 0.00 | 0.00 | 64 | 1011.9 |
| 20260509033549 | 44 | 306 | 0.0 | 0.0 | 0.00 | 0.00 | 0.00 | 65 | 1011.8 |
| 20260509033047 | 44 | 306 | 0.0 | 0.0 | 0.00 | 0.00 | 0.00 | 66 | 1011.7 |
| 20260509032548 | 43 | 306 | 0.0 | 0.0 | 0.00 | 0.00 | 0.00 | 66 | 1011.6 |
| 20260509032046 | 43 | 306 | 0.0 | 1.0 | 0.00 | 0.00 | 0.00 | 66 | 1011.6 |
| 20260509031545 | 43 | 306 | 0.0 | 1.0 | 0.00 | 0.00 | 0.00 | 65 | 1011.7 |
| 20260509031045 | 43 | 306 | 0.0 | 2.0 | 0.00 | 0.00 | 0.00 | 64 | 1011.7 |
| 20260509030545 | 43 | 306 | 0.0 | 2.0 | 0.00 | 0.00 | 0.00 | 66 | 1011.7 |
| 20260509030046 | 43 | 306 | 0.0 | 2.0 | 0.00 | 0.00 | 0.00 | 65 | 1011.5 |
| 20260509025543 | 43 | 306 | 1.0 | 2.0 | 0.00 | 0.00 | 0.00 | 65 | 1011.5 |
| 20260509025043 | 43 | 306 | 1.0 | 2.0 | 0.00 | 0.00 | 0.00 | 64 | 1011.4 |
| 20260509024543 | 43 | 306 | 0.0 | 2.0 | 0.00 | 0.00 | 0.00 | 64 | 1011.4 |
| 20260509024045 | 43 | 306 | 0.0 | 2.0 | 0.00 | 0.00 | 0.00 | 65 | 1011.4 |
| 20260509023544 | 43 | 306 | 0.0 | 3.0 | 0.00 | 0.00 | 0.00 | 63 | 1011.4 |
| 20260509023103 | 43 | 306 | 1.0 | 2.0 | 0.00 | 0.00 | 0.00 | 65 | 1011.4 |
| 20260509022542 | 43 | 307 | 1.0 | 2.0 | 0.00 | 0.00 | 0.00 | 64 | 1011.3 |
| 20260509022043 | 43 | 307 | 1.0 | 2.0 | 0.00 | 0.00 | 0.00 | 63 | 1011.2 |
| 20260509021541 | 43 | 307 | 1.0 | 2.0 | 0.00 | 0.00 | 0.00 | 63 | 1011.2 |
| 20260509021039 | 43 | 307 | 1.0 | 2.0 | 0.00 | 0.00 | 0.00 | 60 | 1011.0 |
| 20260509020538 | 44 | 307 | 1.0 | 2.0 | 0.00 | 0.00 | 0.00 | 61 | 1010.9 |
| 20260509020048 | 44 | 307 | 1.0 | 2.0 | 0.00 | 0.00 | 0.00 | 61 | 1010.7 |
| 20260509015538 | 44 | 307 | 1.0 | 2.0 | 0.00 | 0.00 | 0.00 | 60 | 1010.7 |
| 20260509015038 | 44 | 307 | 1.0 | 2.0 | 0.00 | 0.00 | 0.00 | 60 | 1010.6 |
| 20260509014540 | 45 | 307 | 0.0 | 2.0 | 0.00 | 0.00 | 0.00 | 60 | 1010.6 |
| 20260509014037 | 45 | 307 | 1.0 | 2.0 | 0.00 | 0.00 | 0.00 | 60 | 1010.6 |
| 20260509013538 | 45 | 307 | 0.0 | 2.0 | 0.00 | 0.00 | 0.00 | 58 | 1010.5 |
| 20260509013043 | 46 | 307 | 1.0 | 2.0 | 0.00 | 0.00 | 0.00 | 58 | 1010.5 |
| 20260509012535 | 46 | 307 | 0.0 | 2.0 | 0.00 | 0.00 | 0.00 | 57 | 1010.3 |
| 20260509012035 | 46 | 307 | 0.0 | 2.0 | 0.00 | 0.00 | 0.00 | 57 | 1010.3 |
| 20260509011536 | 47 | 307 | 0.0 | 2.0 | 0.00 | 0.00 | 0.00 | 55 | 1010.3 |
| 20260509011033 | 47 | 307 | 0.0 | 2.0 | 0.00 | 0.00 | 0.00 | 56 | 1010.1 |
| 20260509010532 | 48 | 307 | 0.0 | 2.0 | 0.00 | 0.00 | 0.00 | 54 | 1010.1 |
| 20260509010034 | 48 | 307 | 0.0 | 2.0 | 0.00 | 0.00 | 0.00 | 51 | 1010.0 |
| 20260509005531 | 49 | 307 | 0.0 | 2.0 | 0.00 | 0.00 | 0.00 | 49 | 1009.8 |
| 20260509005030 | 49 | 307 | 0.0 | 2.0 | 0.00 | 0.00 | 0.00 | 48 | 1009.7 |
| 20260509004533 | 50 | 309 | 0.0 | 4.0 | 0.00 | 0.00 | 0.00 | 47 | 1009.6 |
| 20260509004029 | 50 | 309 | 1.0 | 4.0 | 0.00 | 0.00 | 0.00 | 46 | 1009.6 |
| 20260509003529 | 50 | 311 | 1.0 | 4.0 | 0.00 | 0.00 | 0.00 | 45 | 1009.4 |
| 20260509003028 | 51 | 304 | 1.0 | 3.0 | 0.00 | 0.00 | 0.00 | 44 | 1009.4 |
| 20260509002527 | 51 | 304 | 1.0 | 5.0 | 0.00 | 0.00 | 0.00 | 43 | 1009.3 |
| 20260509002027 | 51 | 315 | 2.0 | 9.0 | 0.00 | 0.00 | 0.00 | 42 | 1009.4 |
| 20260509001527 | 51 | 319 | 3.0 | 9.0 | 0.00 | 0.00 | 0.00 | 42 | 1009.3 |
| 20260509001026 | 51 | 323 | 2.0 | 8.0 | 0.00 | 0.00 | 0.00 | 42 | 1009.2 |
| 20260509000526 | 52 | 306 | 1.0 | 8.0 | 0.00 | 0.00 | 0.00 | 42 | 1009.2 |
| 20260509000025 | 52 | 329 | 2.0 | 6.0 | 0.00 | 0.00 | 0.00 | 42 | 1009.0 |
| 20260508235523 | 52 | 303 | 1.0 | 4.0 | 0.00 | 0.00 | 0.00 | 43 | 1008.9 |
| 20260508235023 | 52 | 276 | 2.0 | 5.0 | 0.00 | 0.00 | 0.00 | 43 | 1008.9 |
| 20260508234524 | 52 | 306 | 1.0 | 5.0 | 0.00 | 0.00 | 0.00 | 43 | 1008.9 |
| 20260508234025 | 53 | 304 | 2.0 | 5.0 | 0.00 | 0.00 | 0.00 | 42 | 1008.8 |
| 20260508233522 | 53 | 306 | 1.0 | 6.0 | 0.00 | 0.00 | 0.00 | 41 | 1008.8 |
| 20260508233022 | 53 | 296 | 1.0 | 6.0 | 0.00 | 0.00 | 0.00 | 41 | 1008.7 |
| 20260508232521 | 53 | 285 | 2.0 | 6.0 | 0.00 | 0.00 | 0.00 | 40 | 1008.7 |
| 20260508232020 | 53 | 260 | 2.0 | 7.0 | 0.00 | 0.00 | 0.00 | 40 | 1008.8 |
| 20260508231520 | 53 | 264 | 2.0 | 7.0 | 0.00 | 0.00 | 0.00 | 40 | 1008.7 |
| 20260508231022 | 53 | 272 | 2.0 | 7.0 | 0.00 | 0.00 | 0.00 | 39 | 1008.6 |
| 20260508230520 | 54 | 257 | 3.0 | 11.0 | 0.00 | 0.00 | 0.00 | 39 | 1008.6 |
| 20260508230024 | 54 | 312 | 3.0 | 11.0 | 0.00 | 0.00 | 0.00 | 39 | 1008.5 |
| 20260508225520 | 54 | 325 | 2.0 | 10.0 | 0.00 | 0.00 | 0.00 | 39 | 1008.4 |
| 20260508225018 | 54 | 302 | 3.0 | 8.0 | 0.00 | 0.00 | 0.00 | 38 | 1008.4 |
| 20260508224524 | 54 | 279 | 2.0 | 8.0 | 0.00 | 0.00 | 0.00 | 38 | 1008.4 |
| 20260508224016 | 55 | 314 | 3.0 | 15.0 | 0.00 | 0.00 | 0.00 | 39 | 1008.4 |
| 20260508223518 | 55 | 309 | 5.0 | 15.0 | 0.00 | 0.00 | 0.00 | 37 | 1008.3 |
| 20260508223016 | 55 | 282 | 4.0 | 10.0 | 0.00 | 0.00 | 0.00 | 39 | 1008.2 |
| 20260508222515 | 55 | 308 | 2.0 | 10.0 | 0.00 | 0.00 | 0.00 | 39 | 1008.2 |
| 20260508222014 | 55 | 280 | 2.0 | 11.0 | 0.00 | 0.00 | 0.00 | 38 | 1008.1 |
| 20260508221514 | 55 | 310 | 5.0 | 12.0 | 0.00 | 0.00 | 0.00 | 37 | 1008.1 |
| 20260508221014 | 55 | 267 | 5.0 | 12.0 | 0.00 | 0.00 | 0.00 | 38 | 1008.0 |